Regional Weather Roundup
Issued by NWS Grand Forks, ND

Home | Current Version | Previous Version | Graphics & Text | Print | Product List | Glossary On
Versions: 1 2 3 4 5 6 7 8 9 10 11 12 13 14 15 16 17 18 19 20 21 22 23 24 25 26 27 28 29 30 31 32 33 34 35 36 37 38 39 40 41 42 43 44 45 46 47 48 49 50
000
ASUS43 KFGF 212231
RWRFGF
PRAIRIE TO PINES  WEATHER ROUNDUP
NATIONAL WEATHER SERVICE EASTERN NORTH DAKOTA/GRAND FORKS ND
500 PM CDT THU AUG 21 2014

 **SATELLITE DATA USED TO AUGMENT SKY COVER AT AUTOMATED STATIONS**
 *****  WEATHER ACROSS EASTERN NORTH DAKOTA  *****

CITY           SKY/WX    TMP DP  RH WIND       PRES   REMARKS
GRAND FORKS    PTSUNNY   78  68  71 CALM      29.80R
GRAND FRKS AFB MOSUNNY   77  70  81 E3        29.82R
GRAND FRKS NWS   N/A     61 N/A N/A SW2         N/A
DEVILS LAKE    MOSUNNY   75  64  69 N9        29.83R
FARGO          LGT RAIN  74  70  87 NE6       29.81R
WAHPETON ARPT  PTCLDY    79  66  65 SE3       29.81R
$$

 ***** WEATHER ACROSS CENTRAL AND WESTERN NORTH DAKOTA  *****

CITY           SKY/WX    TMP DP  RH WIND       PRES   REMARKS
BISMARCK       SUNNY     83  62  49 NW12      29.89R
MINOT          PTSUNNY   79  61  53 NW12      29.88S
JAMESTOWN      PTSUNNY   80  68  66 NW13      29.83R
MINOT AFB      MOSUNNY   76  64  65 N10       29.88S
GARRISON         N/A     78  62  57 N10       29.90S
WILLISTON      CLOUDY    73  57  57 N7        29.96S
DICKINSON      MOSUNNY   78  59  51 NW7       29.94R
HETTINGER      SUNNY     82  55  39 NW6       29.94S
$$

 *****  OTHER AIRPORT OBSERVATIONS IN OUR AREA  *****

CITY           SKY/WX    TMP DP  RH WIND       PRES   REMARKS
WALHALLA         N/A     73  73 100 SE3       29.84R
GRAFTON AIRPOR CLOUDY    75  68  78 NE7       29.81S
VALLEY CITY AR MOCLDY    79  70  73 NE5       29.83R
CANDO          FAIR      75  66  73 N9G17     29.87R
CAVALIER APRT  CLOUDY    73  66  78 E5        29.82S
GWINNER        PTCLDY    82  68  61 NW8       29.83R
ROLLA          FAIR      73  68  83 N8        29.89S
 ***** THE ABOVE OBSERVATIONS ARE NON NWS ARE NOT QUALITY
       CONTROLLED AND MAY MIS-REPORT RAIN FOR SNOW...
$$

  *****  WEATHER ACROSS NORTHERN MINNESOTA  *****

CITY           SKY/WX    TMP DP  RH WIND       PRES   REMARKS
FLAG ISLAND    LGT RAIN  66  63  88 E9        29.87R
WARROAD        PTSUNNY   68  64  88 E9        29.87S
ROSEAU         MOSUNNY   72  64  78 E8        29.85S
HALLOCK        MOSUNNY   75  66  73 NE7       29.82S
THF RVR FALLS  PTSUNNY   75  68  78 E7        29.83S
BAUDETTE       CLOUDY    72  64  76 E9        29.87R
WASKISH        CLOUDY    73  68  83 CALM      29.86R
CROOKSTON      MOSUNNY   79  68  69 CALM      29.82R
$$
  *****  WEATHER ACROSS CENTRAL AND WEST MINNESOTA  *****

CITY           SKY/WX    TMP DP  RH WIND       PRES   REMARKS
FOSSTON        PTSUNNY   75  64  69 E5        29.85R
BEMIDJI        CLOUDY    73  66  78 E5        29.86R
PARK RAPIDS    CLOUDY    73  66  78 SE6       29.85R
ELBOW LAKE     CLOUDY    76  71  83 NE5       29.83R
WADENA         CLOUDY    70  68  94 SE6       29.85R FOG
DETROIT LAKES  MOSUNNY   73  68  83 E10       29.85R
MOORHEAD       MOSUNNY   77  73  88 SE3       29.82R
FERGUS FALLS   PTSUNNY   77  66  69 CALM      29.81S
MORRIS MN      SUNNY     82  70  65 NE7       29.81R
STAPLES        CLOUDY    70  66  88 SE3       29.86R
$$
  *****  WEATHER ELSEWHERE ACROSS MINNESOTA  *****

CITY           SKY/WX    TMP DP  RH WIND       PRES   REMARKS
DULUTH         CLOUDY    66  60  81 E16       29.89R
INTRNTL FALLS  CLOUDY    68  62  81 SE9       29.89R
ELY            CLOUDY    64  57  77 E6        29.93R
CLOQUET        CLOUDY    64  61  88 E9        29.89R
WHEATON        MOSUNNY   79  70  73 NW3       29.83R
BRAINERD       CLOUDY    70  66  87 E6        29.85R
HIBBING        CLOUDY    72  61  68 E8        29.89R
ALEXANDRIA     CLOUDY    73  69  87 E9        29.85R
SAINT CLOUD    CLOUDY    77  71  82 VRB6      29.81R
MINNEAPOLIS    CLOUDY    81  73  76 NE8       29.79R
$$

  *****  WEATHER ACROSS SOUTH DAKOTA  *****

CITY           SKY/WX    TMP DP  RH WIND       PRES   REMARKS
SIOUX FALLS    PTSUNNY   87  71  58 NW9       29.83R HX  93
BROOKINGS      NOT AVBL
WATERTOWN      MOSUNNY   82  68  62 NW13      29.84R
HURON          SUNNY     87  64  46 NW10      29.82R
SISSETON         N/A     83  70  64 N7        29.80R
ABERDEEN       SUNNY     83  67  58 NW14      29.83R
MITCHELL       SUNNY     87  70  56 NW9       29.83S HX  92
PIERRE         SUNNY     86  61  42 CALM      29.86S
MOBRIDGE       SUNNY     83  64  52 N13       29.86R
RAPID CITY     MOSUNNY   78  58  49 NE5       29.95F
$$

  *****  SOME WEATHER IN NEARBY STATES *****

CITY           SKY/WX    TMP DP  RH WIND       PRES   REMARKS
GLASGOW MT     CLOUDY    65  59  81 SE7       29.99R
GREAT FALLS MT CLOUDY    66  49  54 N7        30.09S
CHEYENNE WY    PTSUNNY   78  40  25 W8G18     30.14R
SCOTTSBLUFF NE MOSUNNY   89  46  22 NW6       30.00S
OMAHA NE       MOSUNNY   92  70  48 SW8       29.83S HX  97
DES MOINES IA  MOSUNNY   87  74  64 SW15      29.85S HX  95
DAVENPORT IA   LGT RAIN  77  73  87 CALM      29.93R
CHICAGO IL     CLOUDY    75  71  87 SE9       29.93F
EAU CLAIRE WI  MOSUNNY   79  70  74 S14G21    29.84S
LA CROSSE WI   MOSUNNY   83  72  69 S10       29.84R
$$

  *****  SOME NATIONAL WEATHER *****

CITY           SKY/WX    TMP DP  RH WIND       PRES   REMARKS
LA GUARDIA NY  PTSUNNY   78  54  43 SE14      30.01F
RALEIGH NC     PTSUNNY   88  68  51 NW6       30.03F HX  91
ATLANTA GA     PTSUNNY   81  70  69 SW5       30.10F
NEW ORLEANS LA PTSUNNY   79  73  82 W9        30.11R
OKLAHOMA CITY  MOSUNNY   97  68  38 SE16G25   29.91F HX 102
ALBUQUERQUE NM PTSUNNY   86  36  16 SW12      30.10F
SALT LAKE CITY PTSUNNY   82  43  25 SE8       30.03F
LOS ANGELES CA MOSUNNY   74  61  63 W14       29.92F
BOISE ID       MOSUNNY   81  40  23 N10       29.93F
SEATTLE WA     MOSUNNY   68  50  52 VRB5      30.03F
$$

*** WEATHER ACROSS MANITOBA...SASKATCHEWAN AND ONTARIO ***
                ***ONTARIO***

CITY           SKY/WX    TMP DP  RH WIND       PRES   REMARKS
GERALDTON      CLOUDY    70  63  78 SE5       30.00R
THUNDER BAY    CLOUDY    64  61  88 E14       29.97R
SIOUX LOOKOUT  CLOUDY    70  61  73 SE6       29.91F
TORONTO        PTSUNNY   79  64  61 W9        29.94S
BIG TROUT LK   CLOUDY    73  61  64 S6        29.93S
PICKLE LAKE    CLOUDY    70  59  68 SE7       29.96R
DRYDEN         CLOUDY    70  59  68 SE9       29.92R
KENORA         LGT RAIN  66  61  82 SE6       29.91R
$$
                *** MANITOBA***

CITY           SKY/WX    TMP DP  RH WIND       PRES   REMARKS
BRANDON        PTSUNNY   73  64  73 CALM      29.88R
DAUPHIN        CLOUDY    64  61  88 N14       29.94R
ISLAND LAKE    CLOUDY    77  66  69 NW2       29.85S
PILOT MOUND      N/A     66  64  94 N5          N/A
THE PAS        CLOUDY    64  55  72 NW12G20   29.98R
THOMPSON       CLOUDY   N/A N/A N/A N7          N/A
WINNIPEG       LGT RAIN  75  70  83 N13       29.83S
LYNN LAKE      CLOUDY    59  52  77 MISG      30.04R
CHURCHILL      LGT RAIN  46  45  93 N20       29.95R FOG
GILLAM         CLOUDY    57  57 100 N13       29.88
$$
                ***SASKATCHEWAN***

CITY           SKY/WX    TMP DP  RH WIND       PRES   REMARKS
ESTEVAN        CLOUDY    70  59  68 N12       29.96S
KINDERSLEY     CLOUDY    61  48  63 NE10      30.14R
LLOYDMINSTER   PTSUNNY   61  43  51 NE9       30.16F
PRINCE ALBERT  PTSUNNY   63  54  72 N12G17    30.09S
REGINA         PTSUNNY   66  57  72 N14       30.02R
YORKTON        SUNNY     68  55  64 N18       29.99R
N. BATTLEFORD  MOSUNNY   63  52  67 N10G17    30.15R
LA RONGE       PTSUNNY   61  50  67 NW8       30.11S
SASKATOON      PTSUNNY   64  52  63 N17       30.10R
SWIFT CURRENT  LGT RAIN  59  57  94 N12       30.08S
$$
NOTE: THESE ARE AUTOMATED STATIONS WITH LIMITED QUALITY CONTROL
      "FAIR" INDICATES FEW OR NO CLOUDS BELOW 12,000 FEET WITH NO
      SIGNIFICANT WEATHER AND/OR OBSTRUCTIONS TO VISIBILITY.
      SKY/WX - SKY CONDITION AND SIGNIFICANT WEATHER.
      TMP - AIR TEMPERATURE.    DP   - DEWPOINT TEMPERATURE.
      RH  - RELATIVE HUMIDITY.  PRES - PRESSURE.
      HX  - HEAT INDEX.         WCI  - WIND CHILL INDEX.
$



USA.gov is the U.S. government's official web portal to all federal, state and local government web resources and services.